Regional Weather Roundup
Issued by NWS Sioux Falls, SD

Home | Current Version | Previous Version | Text Only | Print | Product List | Glossary Off
Versions: 1 2 3 4 5 6 7 8 9 10 11 12 13 14 15 16 17 18 19 20 21 22 23 24 25 26 27 28 29 30 31 32 33 34 35 36 37 38 39 40 41 42 43 44 45 46 47 48 49 50

000
ASUS43 KFSD 292110
RWRFSD

WEATHER ROUNDUP FOR SE SOUTH DAKOTA/SW MINNESOTA/NW IOWA
NATIONAL WEATHER SERVICE SIOUX FALLS SD
400 PM CDT FRI APR 29 2016

NOTE: "FAIR" INDICATES FEW OR NO CLOUDS BELOW 12,000 FEET WITH NO
SIGNIFICANT WEATHER AND OR OBSTRUCTIONS TO VISIBILITY.


SDZ038>040-050-052>070-292200-
SOUTHEAST SOUTH DAKOTA

CITY           SKY/WX    TMP DP  RH WIND       PRES   REMARKS
BROOKINGS      CLOUDY    49  38  65 SE10      30.12S
CHAMBERLAIN    CLOUDY    49  43  80 SE10      30.10F
HURON          CLOUDY    51  39  63 SE13G23   30.12S
MADISON        CLOUDY    46  43  87 E15       30.13S
MITCHELL       CLOUDY    51  42  71 SE14      30.11F
SIOUX FALLS    CLOUDY    49  38  65 E9        30.12F
WINNER         CLOUDY    44  39  82 E10       30.08F
YANKTON        CLOUDY    43  39  87 E9        30.10F
$$

MNZ071-072-080-081-089-090-097-098-292200-
SOUTHWEST MINNESOTA

CITY           SKY/WX    TMP DP  RH WIND       PRES   REMARKS
FAIRMONT       CLOUDY    50  30  46 E9        30.11F
JACKSON        CLOUDY    50  37  62 E9        30.12F
LUVERNE        CLOUDY    48  36  61 E10       30.13S
MARSHALL       CLOUDY    53  39  59 SE10      30.13R
MONTEVIDEO     CLOUDY    57  41  54 E12       30.14R
PIPESTONE      CLOUDY    50  37  62 SE7       30.12S
REDWOOD FALLS  CLOUDY    54  37  52 E12       30.11S
TRACY          CLOUDY    52  41  64 E8        30.13S
WINDOM         CLOUDY    52  37  58 E6        30.11F
WORTHINGTON    CLOUDY    49  39  68 E9        30.12F
$$

IAZ001>003-012>014-020>022-031-032-NEZ013-014-SDZ071-292200-
NORTHWEST IOWA

CITY           SKY/WX    TMP DP  RH WIND       PRES   REMARKS
CHEROKEE       CLOUDY    46  41  83 E8G16     30.11S
DENISON        CLOUDY    46  43  87 NE10G17   30.05F
ESTHERVILLE    CLOUDY    48  40  73 E9        30.11F
LE MARS        CLOUDY    48  39  71 E12       30.11F
ORANGE CITY    CLOUDY    48  39  71 E10       30.11S
SHELDON        CLOUDY    48  41  76 E10       30.09F
SIOUX CITY     CLOUDY    47  40  76 E8        30.10S
SPENCER        CLOUDY    49  39  68 E14       30.11F
STORM LAKE     CLOUDY    45  41  87 E14       30.10S
$$

ABBREVIATIONS USED IN REMARKS
   TC - TEMPERATURE IN CELSIUS
  WCI - WIND CHILL INDEX
   HX - HEAT INDEX
  VSB - VISIBILITY




USA.gov is the U.S. government's official web portal to all federal, state and local government web resources and services.